Simultaneous Nadir Overpasses (SNOs) Predictions

Prediction of SNOs near US between AQUA and NPP Satellite Orbit:

Table of predicted SNOs near US for the next 10.0 days since TLE Epoch: 3/13/2020
Index Date (AQUA) Time (AQUA) AQUA Lat,Lon Date (NPP) Time (NPP) NPP Lat,Lon Distance(km) Time Diff (sec)
1 03/16/2020 07:19:02 49.89, -76.00 03/16/2020 07:19:50 50.33, -78.18 163.30 48
2 03/16/2020 08:57:55 49.90,-100.72 03/16/2020 09:01:18 50.44,-103.50 207.77 203
3 03/18/2020 18:17:12 49.99, -80.20 03/18/2020 18:10:08 49.74, -81.76 115.24 424
4 03/18/2020 19:56:05 49.98,-104.91 03/18/2020 19:51:36 49.63,-107.08 160.46 269
5 03/18/2020 21:31:14 36.63,-124.98 03/18/2020 21:29:13 36.13,-127.54 235.36 121
6 03/21/2020 09:24:48 20.03,-114.25 03/21/2020 09:16:28 19.70,-114.82 69.70 500




NCC Satellite Simultaneous Nadir Overpasses (SNOs) Prediction Service
